Temperature
-0 -1 -1 -1 -1 -1 -1 -1 -2 -2 -2 -2 -2 -2 -2 -2 -2 -2 -2 -2 -2 -2 -2 -2 -2 -3 -3 -3 -3 -3 -3 -4 -4 -3 -2 -2 -2 -1 -1 -1 -1 -0 -0
-1 -1 -1 -1 -2 -2 -2 -2 -2 -2 -2 -2 -3 -3 -3 -3 -3 -3 -3 -3 -3 -3 -3 -3 -3 -3 -3 -3 -4 -4 -4 -4 -4 -4 -3 -3 -2 -2 -2 -1 -1 -1 -1
-1 -1 -2 -2 -2 -2 -2 -2 -3 -3 -3 -3 -3 -3 -3 -3 -3 -3 -3 -3 -3 -3 -3 -4 -4 -4 -4 -4 -4 -4 -4 -4 -4 -5 -4 -4 -3 -3 -2 -2 -2 -1 -1
-2 -2 -2 -2 -2 -2 -3 -3 -3 -3 -3 -3 -3 -4 -4 -4 -4 -4 -4 -4 -4 -4 -4 -4 -4 -4 -4 -4 -5 -5 -5 -5 -5 -5 -5 -4 -4 -4 -3 -3 -2 -2 -2
-2 -2 -2 -3 -3 -3 -3 -3 -3 -4 -4 -4 -4 -4 -4 -4 -4 -4 -5 -5 -5 -5 -5 -5 -5 -5 -5 -5 -5 -5 -5 -5 -5 -5 -5 -5 -5 -5 -4 -4 -4 -3 -3
-3 -3 -3 -3 -3 -4 -4 -4 -4 -4 -4 -4 -5 -5 -5 -5 -5 -5 -5 -5 -5 -5 -5 -5 -5 -5 -5 -5 -6 -6 -6 -6 -6 -6 -6 -6 -5 -5 -5 -5 -5 -5 -4
-3 -3 -3 -4 -4 -4 -4 -4 -4 -5 -5 -5 -5 -5 -5 -5 -5 -6 -6 -6 -6 -5 -5 -5 -5 -6 -6 -6 -6 -6 -6 -6 -6 -6 -6 -6 -6 -6 -6 -6 -5 -5 -5
-4 -4 -4 -4 -4 -4 -5 -5 -5 -5 -5 -5 -5 -6 -6 -6 -6 -6 -6 -6 -6 -6 -6 -6 -6 -6 -6 -6 -6 -6 -6 -6 -6 -6 -6 -6 -6 -6 -6 -6 -6 -6 -5
-4 -4 -4 -5 -5 -5 -5 -5 -5 -6 -6 -6 -6 -6 -6 -6 -6 -6 -6 -6 -6 -6 -6 -6 -7 -7 -7 -7 -7 -7 -7 -7 -7 -7 -7 -7 -6 -6 -6 -6 -6 -6 -6
-5 -5 -5 -5 -5 -6 -6 -6 -6 -6 -6 -7 -7 -7 -7 -7 -7 -7 -7 -7 -7 -7 -7 -7 -7 -7 -7 -7 -7 -7 -7 -7 -7 -7 -7 -7 -7 -7 -7 -7 -7 -7 -7
-5 -5 -6 -6 -6 -6 -6 -6 -6 -7 -7 -7 -7 -7 -7 -7 -7 -7 -7 -8 -7 -7 -7 -7 -7 -7 -8 -8 -8 -8 -8 -7 -7 -7 -7 -7 -7 -7 -7 -7 -7 -7 -7
-6 -6 -6 -7 -7 -7 -7 -7 -7 -7 -7 -8 -8 -8 -8 -8 -8 -8 -8 -8 -8 -8 -8 -8 -8 -8 -8 -8 -8 -8 -8 -8 -8 -8 -8 -8 -8 -8 -8 -8 -7 -7 -7
-7 -7 -7 -7 -7 -8 -8 -8 -8 -8 -8 -8 -8 -8 -8 -8 -8 -8 -8 -9 -9 -9 -9 -9 -9 -9 -8 -8 -9 -9 -9 -9 -9 -9 -8 -8 -8 -8 -8 -8 -8 -8 -8
-7 -8 -8 -8 -8 -8 -8 -8 -8 -9 -9 -9 -9 -9 -9 -9 -9 -9 -9 -9 -9 -9 -9 -9 -9 -9 -9 -9 -9 -9 -9 -9 -9 -9 -9 -9 -9 -9 -9 -9 -9 -8 -8
-8 -8 -9 -9 -9 -9 -9 -9 -9 -9 -9 -10 -9 -10 -10 -10 -10 -10 -10 -10 -10 -10 -10 -10 -9 -9 -9 -10 -10 -10 -10 -10 -10 -10 -9 -9 -9 -9 -9 -9 -9 -9 -9
-9 -9 -9 -9 -9 -10 -10 -10 -10 -10 -10 -10 -10 -10 -10 -10 -10 -10 -10 -10 -10 -10 -10 -10 -10 -10 -10 -11 -11 -10 -10 -10 -10 -10 -10 -10 -10 -10 -10 -9 -9 -9 -9
-10 -10 -10 -10 -10 -10 -10 -10 -10 -10 -10 -10 -11 -11 -11 -11 -11 -11 -11 -11 -11 -11 -11 -11 -11 -11 -11 -11 -11 -11 -11 -11 -11 -11 -11 -10 -10 -10 -10 -10 -10 -10 -10
-10 -10 -11 -11 -11 -11 -11 -11 -11 -11 -11 -11 -11 -11 -11 -11 -11 -11 -11 -11 -11 -11 -11 -11 -11 -12 -12 -12 -12 -12 -12 -12 -11 -11 -11 -11 -11 -11 -10 -10 -10 -10 -10
-11 -11 -11 -11 -11 -11 -11 -12 -12 -12 -12 -12 -12 -12 -12 -11 -11 -11 -12 -12 -12 -12 -12 -12 -12 -12 -12 -12 -12 -12 -12 -12 -12 -12 -12 -11 -11 -11 -11 -11 -11 -11 -10
-11 -11 -12 -12 -12 -12 -12 -12 -12 -12 -13 -13 -13 -13 -12 -12 -12 -12 -12 -12 -12 -12 -12 -12 -12 -12 -12 -12 -12 -12 -12 -12 -12 -12 -12 -12 -12 -12 -11 -11 -11 -11 -11
-12 -12 -12 -12 -12 -12 -12 -13 -13 -13 -13 -13 -13 -13 -13 -13 -13 -13 -13 -13 -13 -13 -13 -13 -13 -13 -13 -13 -13 -13 -13 -13 -13 -13 -12 -12 -12 -12 -12 -12 -12 -12 -11
-12 -13 -13 -13 -13 -13 -13 -13 -13 -13 -13 -13 -13 -13 -13 -13 -13 -13 -13 -13 -13 -13 -13 -13 -13 -13 -13 -13 -13 -13 -13 -13 -13 -13 -13 -13 -12 -12 -12 -12 -12 -12 -12
-13 -13 -13 -13 -13 -13 -14 -14 -14 -14 -14 -14 -14 -14 -14 -14 -14 -14 -14 -14 -14 -14 -14 -14 -14 -13 -13 -13 -13 -13 -13 -13 -13 -13 -13 -13 -13 -13 -12 -12 -12 -12 -12
-13 -13 -14 -14 -14 -14 -14 -14 -14 -14 -14 -14 -14 -14 -14 -14 -14 -14 -14 -14 -14 -14 -14 -14 -14 -14 -14 -14 -13 -13 -13 -13 -13 -13 -13 -13 -13 -13 -13 -13 -12 -12 -12
-14 -14 -14 -14 -14 -14 -14 -14 -14 -14 -14 -15 -15 -15 -15 -15 -14 -14 -14 -14 -14 -14 -14 -14 -14 -14 -14 -14 -14 -14 -13 -13 -14 -14 -14 -13 -13 -13 -13 -13 -13 -13 -13
-14 -14 -14 -14 -15 -15 -15 -15 -15 -15 -15 -15 -15 -15 -15 -15 -15 -15 -15 -15 -14 -14 -14 -14 -14 -14 -14 -14 -14 -14 -14 -14 -14 -14 -14 -14 -13 -13 -13 -13 -13 -13 -13
Wind_Speed
4 4 4 3 3 3 2 2 2 2 2 2 2 2 2 2 2 1 2 2 2 3 3 3 3 3 3 3 3 3 4 4 7 7 5 6 7 8 11 12 12 12 12
4 4 3 3 3 2 2 2 2 2 2 3 2 2 2 2 2 3 3 3 3 4 4 4 4 4 4 4 4 4 5 5 6 8 7 6 7 7 8 9 10 10 10
4 4 3 3 3 3 2 2 2 2 2 2 2 3 3 3 3 4 4 4 5 5 5 5 5 5 5 4 5 5 5 5 5 6 8 6 6 6 7 8 8 8 9
3 3 3 3 3 3 2 2 2 2 2 2 3 3 3 4 4 4 5 5 5 6 6 6 6 6 6 6 6 6 6 6 5 6 7 6 6 6 5 6 7 5 6
3 3 3 2 2 2 2 2 2 2 2 2 2 3 3 3 4 5 5 6 5 6 5 6 6 8 9 8 7 6 6 6 6 6 7 6 6 5 5 5 8 7 7
3 2 2 2 2 2 2 1 1 1 1 2 2 3 3 4 7 8 6 4 5 5 5 5 5 7 9 11 12 11 10 8 6 6 7 7 7 7 6 7 7 7 7
2 1 1 2 2 1 1 1 1 2 1 2 2 3 4 6 9 9 9 4 4 4 4 4 5 5 8 6 9 12 12 14 13 9 8 8 8 7 7 8 8 8 9
2 1 1 1 1 1 1 1 2 2 2 2 3 3 3 6 9 10 10 3 3 4 5 5 6 6 7 8 7 7 8 8 10 8 8 9 8 8 8 8 9 8 8
1 1 1 1 1 1 1 2 2 2 2 2 3 3 3 6 9 10 9 3 4 4 5 5 6 6 11 12 8 7 8 8 11 13 13 13 14 14 11 6 5 6 8
1 1 1 1 1 2 2 2 1 2 2 2 3 3 3 5 9 9 9 3 4 4 4 5 9 9 11 12 7 6 8 8 7 8 9 10 9 10 11 6 5 6 7
1 1 1 0 1 1 1 1 1 1 1 2 3 3 3 5 7 9 9 4 4 4 4 4 5 11 12 12 10 6 9 9 6 6 6 5 5 5 5 6 6 6 7
1 1 1 1 1 1 0 1 0 1 1 2 2 3 3 4 6 8 10 9 8 4 4 4 6 11 11 11 9 9 12 9 4 4 5 5 5 5 5 6 7 8 8
1 1 1 1 1 1 0 0 1 0 1 2 2 3 3 3 5 9 10 10 10 5 4 8 9 10 9 7 8 10 8 4 4 4 5 5 5 5 5 5 6 7 7
1 1 1 1 1 2 1 1 1 1 1 2 2 3 3 3 4 4 4 5 7 6 5 6 8 8 6 6 6 6 4 4 4 5 5 5 4 4 5 5 5 5 5
1 1 1 1 1 1 1 1 2 1 2 2 2 2 3 4 6 8 6 4 3 4 4 2 2 3 3 3 3 3 3 4 4 4 4 5 5 5 5 5 4 4 5
1 1 1 1 1 1 1 3 4 4 6 6 7 6 5 7 10 10 10 9 9 7 4 2 3 3 4 4 4 4 4 4 4 4 4 4 5 5 6 5 4 4 5
0 1 0 1 1 1 1 2 3 5 6 7 8 8 8 9 10 10 10 9 8 6 3 3 3 4 4 4 4 4 5 5 4 4 5 4 5 5 5 5 5 4 5
1 1 1 0 1 1 1 2 2 3 4 4 6 9 9 10 10 10 9 7 5 4 3 3 3 4 4 4 4 4 5 5 4 4 4 4 4 4 5 5 5 4 5
1 1 1 1 1 1 1 2 2 3 3 4 5 6 9 9 9 9 8 4 3 4 4 4 4 4 4 4 4 4 4 5 5 4 4 5 4 4 4 5 5 7 6
1 2 2 1 1 1 1 2 2 3 3 4 4 5 5 5 4 5 4 3 3 4 4 4 4 4 4 4 4 4 4 5 5 4 5 4 4 4 5 5 5 5 5
1 2 3 2 1 2 2 2 3 3 3 4 4 6 8 4 4 4 4 4 4 4 4 5 5 5 4 4 4 4 5 5 5 5 5 4 4 4 4 4 5 5 4
1 1 1 2 2 2 3 2 3 3 4 5 5 6 8 4 3 4 4 5 4 4 5 5 5 5 4 4 4 5 5 5 5 5 5 4 4 4 4 4 4 4 4
1 1 2 2 2 4 4 3 3 3 4 4 5 5 4 4 4 4 5 5 5 5 6 6 5 6 6 6 6 6 5 6 6 5 5 5 4 4 4 4 5 5 5
1 2 2 2 2 2 3 3 3 4 4 4 5 5 4 5 5 6 5 5 6 6 7 6 7 8 9 9 8 9 9 9 9 7 7 5 5 5 4 5 5 5 5
1 1 2 2 3 3 3 4 4 4 4 5 5 5 5 5 5 6 6 6 7 7 8 8 8 9 10 11 11 11 12 13 12 9 7 5 5 6 5 5 5 5 5
1 2 2 3 3 3 3 4 4 4 5 5 5 5 5 5 6 6 6 6 6 7 8 8 10 11 12 12 12 13 14 14 13 12 8 5 5 6 5 5 6 5 5
Wind_Direction
171 171 166 173 171 168 185 201 208 223 228 231 244 246 250 255 252 252 261 257 263 268 260 248 249 249 249 252 250 251 252 249 267 283 285 296 298 300 307 307 305 301 299
169 164 168 172 171 175 196 212 212 228 237 235 237 244 247 248 249 248 258 259 257 259 254 253 257 255 251 253 250 253 257 251 258 279 290 291 289 292 297 300 302 300 296
159 159 163 171 180 193 206 215 221 228 246 249 240 245 251 249 249 250 249 252 254 254 248 247 253 250 256 255 253 254 258 265 257 269 283 285 285 289 297 297 295 295 299
154 162 177 193 198 203 208 213 222 226 236 247 249 249 254 254 250 251 252 253 255 256 249 247 247 244 247 250 254 253 256 262 260 265 275 281 283 284 286 297 300 294 297
159 175 199 205 200 200 205 213 224 232 246 252 256 261 265 257 247 248 251 253 255 260 255 251 251 256 259 257 259 253 254 256 260 268 275 283 287 292 289 291 293 299 294
170 188 191 182 183 195 202 206 219 240 255 259 254 253 264 272 274 277 276 259 262 262 263 262 260 267 273 278 281 279 273 267 268 269 276 278 282 282 286 289 294 297 295
169 179 179 176 184 204 206 197 220 231 241 259 264 261 267 277 285 286 287 284 268 265 264 267 274 274 283 275 279 282 280 278 276 274 274 272 274 274 279 284 284 283 282
159 177 186 186 204 213 204 220 232 229 230 247 263 267 275 285 293 293 293 291 277 266 262 258 262 268 270 271 265 268 265 268 271 269 263 267 271 271 266 273 279 283 282
170 217 229 213 213 219 229 246 240 223 245 252 260 261 273 291 301 300 303 281 276 271 269 266 267 264 277 283 279 276 276 275 279 275 276 279 283 285 283 281 282 287 290
239 253 249 224 216 233 245 255 231 221 236 264 281 277 275 284 298 304 310 293 283 281 278 273 281 284 288 293 286 274 277 280 279 282 281 281 282 282 282 271 267 275 285
299 323 302 288 263 247 266 274 217 236 262 268 282 289 280 286 301 308 309 305 290 287 287 284 283 293 294 295 295 283 284 291 281 279 278 278 276 270 269 270 262 258 268
32 28 358 5 346 1 18 329 299 219 254 278 290 299 292 293 305 306 309 307 309 296 292 290 289 296 296 298 300 299 299 302 294 288 286 286 285 285 283 282 275 271 266
49 28 10 12 10 10 35 339 357 354 282 288 289 294 299 303 305 308 308 309 311 309 294 299 302 302 306 307 308 309 310 306 293 286 286 287 285 282 288 292 290 287 284
77 33 24 37 16 15 359 345 323 294 291 294 293 293 297 298 296 298 296 301 305 306 306 307 312 309 310 311 312 315 313 303 293 285 285 287 291 289 290 294 294 298 294
59 47 24 16 19 353 344 325 312 271 273 293 282 283 291 292 297 304 309 303 302 298 314 324 332 334 332 325 319 315 313 314 310 302 294 293 293 296 295 296 291 294 288
43 24 19 6 358 357 353 343 334 331 324 327 326 323 310 309 312 314 317 319 322 327 337 338 324 322 320 319 317 318 317 313 311 306 300 296 294 294 295 296 294 289 289
107 321 329 350 351 338 336 339 337 341 342 342 337 333 330 325 326 328 329 329 329 336 344 329 318 314 313 312 311 309 309 309 309 304 300 298 295 294 292 293 294 295 292
5 319 340 308 291 301 313 317 319 324 328 331 331 331 332 331 333 333 333 338 341 342 335 318 310 307 306 305 304 304 305 308 307 304 302 301 297 294 294 292 289 286 289
355 335 325 303 298 298 310 314 311 310 311 316 325 328 333 334 337 340 342 346 329 325 320 312 305 301 299 298 298 299 299 299 301 301 298 298 297 293 290 290 289 290 290
334 323 335 326 315 311 308 306 306 306 307 308 311 316 324 329 333 333 338 331 321 314 313 310 306 301 299 297 296 295 296 296 299 296 296 297 297 293 289 290 290 291 289
324 313 327 333 314 300 295 292 293 295 298 300 300 303 311 315 315 316 317 319 314 310 307 304 301 299 295 294 292 292 293 292 292 291 293 294 296 295 290 288 290 288 290
301 301 305 298 298 295 294 290 290 291 293 296 301 306 314 323 313 308 308 308 308 306 301 298 295 294 290 288 286 287 287 286 286 284 285 288 290 291 291 289 289 289 288
296 295 301 298 294 295 309 307 299 294 293 294 296 300 307 308 303 300 300 302 305 303 299 296 294 294 292 288 282 277 276 278 279 277 277 281 284 286 288 289 287 286 284
276 280 286 291 296 294 294 295 293 292 292 294 296 296 298 299 298 297 298 300 299 298 296 294 290 290 292 294 291 285 279 279 278 271 261 263 270 278 281 283 284 281 280
276 280 284 285 286 289 290 289 289 290 291 292 292 294 295 296 296 295 295 295 295 294 294 294 292 291 292 292 291 289 290 290 287 280 264 257 262 266 271 274 276 280 277
259 270 276 279 277 278 279 281 283 285 286 288 288 288 289 289 291 293 294 295 296 295 295 295 294 294 294 295 294 293 294 294 291 289 281 263 260 265 267 268 270 273 275
Height
1481 1483 1485 1487 1489 1490 1491 1492 1493 1493 1494 1494 1494 1494 1493 1493 1493 1492 1492 1492 1491 1491 1491 1490 1490 1490 1490 1490 1490 1490 1489 1488 1485 1482 1483 1482 1481 1480 1479 1478 1477 1476 1475
1477 1480 1482 1484 1485 1486 1487 1488 1489 1489 1490 1490 1490 1490 1489 1489 1489 1489 1488 1488 1487 1487 1486 1486 1485 1485 1485 1485 1485 1484 1484 1483 1481 1478 1477 1477 1476 1475 1473 1472 1471 1470 1469
1474 1476 1478 1480 1481 1482 1483 1484 1485 1485 1485 1486 1486 1485 1485 1485 1485 1485 1484 1483 1483 1482 1482 1481 1481 1481 1480 1480 1480 1479 1479 1478 1477 1474 1472 1471 1470 1470 1468 1467 1465 1464 1463
1471 1473 1474 1476 1477 1478 1479 1480 1481 1481 1481 1481 1481 1481 1481 1481 1481 1480 1480 1479 1479 1478 1477 1477 1477 1476 1476 1475 1475 1474 1474 1473 1471 1470 1468 1466 1465 1464 1463 1461 1459 1458 1457
1468 1469 1470 1472 1473 1474 1475 1476 1476 1477 1477 1477 1477 1477 1477 1477 1476 1476 1475 1475 1474 1473 1473 1472 1472 1471 1471 1470 1470 1469 1469 1467 1466 1465 1463 1461 1460 1459 1458 1456 1454 1451 1450
1464 1466 1467 1468 1469 1470 1471 1471 1472 1472 1472 1472 1472 1472 1472 1472 1472 1472 1472 1471 1470 1469 1468 1467 1467 1467 1466 1466 1465 1465 1464 1463 1462 1460 1458 1456 1455 1454 1453 1451 1449 1446 1443
1461 1462 1463 1464 1465 1466 1466 1467 1467 1467 1467 1468 1468 1468 1468 1468 1467 1467 1467 1466 1465 1464 1463 1462 1462 1461 1461 1460 1459 1459 1458 1458 1457 1456 1453 1452 1450 1449 1448 1446 1444 1442 1439
1458 1459 1460 1460 1461 1462 1462 1462 1463 1463 1463 1463 1463 1463 1463 1463 1463 1462 1462 1461 1460 1459 1458 1457 1456 1456 1455 1454 1453 1453 1452 1451 1451 1449 1448 1446 1446 1444 1443 1442 1439 1436 1434
1455 1456 1456 1457 1457 1457 1457 1458 1458 1458 1459 1459 1459 1459 1458 1458 1458 1458 1457 1456 1455 1454 1453 1452 1451 1450 1450 1449 1448 1447 1446 1445 1445 1444 1443 1441 1440 1439 1438 1436 1434 1432 1428
1453 1453 1453 1454 1454 1454 1454 1454 1454 1454 1454 1455 1455 1455 1454 1454 1454 1453 1453 1451 1450 1449 1448 1447 1446 1445 1444 1444 1443 1442 1440 1439 1438 1437 1436 1435 1434 1433 1432 1431 1429 1427 1424
1451 1451 1451 1451 1451 1451 1451 1451 1451 1451 1451 1451 1451 1451 1451 1450 1450 1449 1449 1448 1446 1444 1443 1441 1440 1440 1439 1439 1438 1436 1435 1434 1433 1431 1430 1428 1427 1426 1426 1425 1424 1422 1420
1448 1448 1448 1449 1449 1448 1448 1448 1447 1447 1447 1447 1447 1447 1447 1447 1446 1445 1445 1444 1442 1440 1439 1437 1436 1435 1434 1433 1432 1431 1430 1429 1427 1426 1424 1423 1422 1421 1419 1419 1418 1417 1415
1446 1446 1446 1446 1446 1446 1445 1445 1444 1444 1444 1444 1444 1443 1443 1443 1442 1441 1440 1439 1438 1437 1435 1433 1432 1430 1429 1428 1427 1426 1425 1424 1422 1420 1419 1417 1416 1415 1414 1413 1411 1410 1409
1444 1444 1444 1443 1443 1443 1443 1443 1442 1442 1442 1441 1441 1440 1440 1439 1438 1437 1436 1435 1434 1432 1431 1429 1428 1426 1425 1423 1422 1421 1420 1419 1418 1416 1414 1413 1412 1410 1409 1407 1405 1403 1402
1441 1442 1441 1441 1441 1441 1441 1441 1441 1440 1440 1440 1439 1438 1437 1435 1435 1435 1433 1431 1430 1429 1427 1425 1423 1422 1421 1419 1418 1417 1416 1415 1413 1412 1410 1409 1407 1406 1404 1403 1401 1399 1397
1440 1440 1439 1439 1439 1439 1439 1439 1439 1439 1438 1437 1437 1436 1434 1433 1432 1431 1430 1428 1427 1425 1424 1421 1420 1418 1417 1416 1414 1413 1412 1411 1409 1408 1407 1405 1403 1402 1400 1399 1397 1395 1393
1439 1438 1438 1438 1438 1437 1437 1436 1435 1435 1435 1434 1433 1432 1431 1430 1429 1428 1426 1425 1423 1422 1420 1418 1417 1416 1414 1413 1411 1410 1408 1407 1406 1404 1403 1401 1400 1398 1396 1395 1393 1391 1390
1438 1437 1437 1437 1437 1436 1436 1435 1434 1433 1432 1431 1430 1429 1428 1427 1425 1424 1423 1421 1419 1418 1417 1415 1414 1413 1411 1410 1408 1406 1405 1403 1402 1400 1399 1398 1396 1395 1393 1391 1390 1388 1386
1436 1436 1436 1435 1435 1435 1434 1433 1432 1431 1430 1429 1427 1426 1425 1424 1422 1421 1420 1418 1416 1415 1414 1412 1411 1410 1408 1407 1405 1403 1402 1400 1398 1397 1395 1394 1393 1391 1390 1388 1386 1385 1384
1435 1435 1435 1434 1433 1433 1432 1432 1431 1430 1428 1427 1425 1424 1423 1421 1419 1418 1417 1415 1414 1412 1411 1409 1408 1406 1405 1403 1402 1400 1398 1397 1395 1393 1392 1391 1389 1388 1386 1385 1383 1381 1380
1434 1433 1433 1433 1432 1432 1431 1430 1429 1428 1426 1425 1424 1422 1421 1419 1417 1416 1414 1413 1411 1409 1408 1406 1404 1403 1401 1400 1398 1396 1395 1393 1391 1390 1388 1387 1385 1384 1383 1381 1380 1378 1377
1432 1431 1431 1431 1430 1430 1429 1428 1427 1426 1424 1423 1421 1420 1419 1417 1415 1413 1411 1410 1408 1406 1405 1403 1401 1399 1398 1396 1394 1393 1391 1389 1388 1386 1385 1383 1382 1381 1379 1378 1376 1375 1374
1430 1430 1429 1429 1428 1427 1426 1425 1424 1423 1421 1420 1418 1417 1415 1414 1412 1410 1408 1407 1405 1403 1401 1399 1397 1396 1394 1392 1391 1389 1387 1386 1384 1383 1381 1380 1378 1377 1376 1374 1373 1372 1371
1429 1428 1427 1426 1425 1425 1424 1422 1421 1420 1418 1417 1415 1414 1412 1410 1409 1407 1405 1403 1401 1399 1397 1395 1394 1392 1390 1388 1387 1385 1384 1382 1381 1379 1378 1376 1375 1374 1373 1371 1370 1369 1368
1426 1425 1424 1423 1423 1422 1420 1419 1418 1416 1415 1413 1412 1410 1409 1407 1405 1403 1402 1400 1397 1395 1393 1392 1390 1388 1386 1384 1382 1381 1379 1378 1377 1376 1374 1373 1372 1370 1369 1368 1366 1365 1364
1424 1423 1421 1420 1419 1418 1417 1415 1414 1413 1411 1409 1408 1406 1405 1403 1401 1399 1397 1395 1393 1391 1389 1387 1385 1383 1381 1380 1378 1376 1375 1374 1373 1372 1371 1369 1368 1367 1366 1364 1363 1362 1361